Santander Airport, Spain

6:28 PM CET en Diciembre 16, 2018 (GMT +0100)
Santander Airport

Tiempo Historia de LEXJ - Octubre, 2018

Change the Weather History Date:

Viernes, Octubre 12, 2018

  Actual Average Record
Temperature  
Temperatura media 70 ° F -  
Temperatura máxima 82 ° F 62 ° F 82 ° F (2018)
Temperatura mínima 57 ° F 51 ° F 44 ° F (2013)
Cooling Degree Days 4    
Growing Degree Days 20 (Base 50)    
Moisture  
Punto de rocío 52 ° F    
Average Humidity 42    
Maximum Humidity 91    
Minimum Humidity 25    
Precipitación  
Precipitación 0.00 pul - - ()
Presión al nivel del mar  
Presión al nivel del mar 29.94 pul    
Viento  
Velocidad del viento 13 mph ()    
Velocidad máxima del viento 23 mph    
Max Gust Speed 34 mph    
Visibilidad 6.2 Millas    
Eventos      
Averages and records for this station are not official NWS values.
T = Trace of Precipitation, MM = Missing Value Source: Averaged Metar Reports

Daily Weather History Graph

Daily Weather History Graph

Search for Another Location

Airport or City:

Astronomía

Oct. 12, 2018 Salida Puesta
Hora real 8:25 AM CEST 7:37 PM CEST
Crepúsculo civil 7:56 AM CEST 8:06 PM CEST
Crepúsculo náutico 7:23 AM CEST 8:39 PM CEST
Crepúsculo astronómico 6:50 AM CEST 9:12 PM CEST
Luna 11:49 AM CEST (10/12) 9:59 PM CEST (10/12)
Horas de luz 12h 09m
Horas de luz
11h 12m
Creciente, 12% of the Moon is Illuminated
Oct 12
Creciente
Oct 16
Cuarto creciente
Oct 24
Luna llena
Oct 31
Cuarto menguante
Nov 7
Nueva

Hourly Weather History & Observations

Hora (CEST) Temp. Índice de calor Punto de rocío Humedad Presión Visibilidad Wind Dir Velocidad del viento Velocidad de ráfagas Precip Eventos Condiciones
12:00 AM 58 ° F - 56 ° F 91% 29.87 pul - ONO 2.3 mph - -  
12:00 AM 68.0 ° F - 57.2 ° F 68% 29.86 pul 3.7 mi SO 6.9 mph - N/A   Desconocido
12:30 AM 71.6 ° F - 55.4 ° F 57% 29.83 pul 4.3 mi Sur 11.5 mph - N/A   Desconocido
1:00 AM 70 ° F - 56 ° F 51% 29.86 pul - SSO 9.2 mph - -  
1:00 AM 73.4 ° F - 53.6 ° F 50% 29.86 pul 5.6 mi SSO 12.7 mph - N/A   Desconocido
1:30 AM 73.4 ° F - 53.6 ° F 50% 29.83 pul 4.3 mi Sur 17.3 mph 28.8 mph N/A   Desconocido
2:00 AM 72 ° F - 54 ° F 43% 29.86 pul - SSO 15.0 mph - -  
2:00 AM 73.4 ° F - 53.6 ° F 50% 29.86 pul 5.0 mi SSO 16.1 mph 28.8 mph N/A   Desconocido
2:30 AM 73.4 ° F - 51.8 ° F 47% 29.86 pul 4.3 mi SSO 15.0 mph - N/A   Desconocido
3:00 AM 72 ° F - 54 ° F 43% 29.88 pul - SO 10.4 mph - -  
3:00 AM 73.4 ° F - 53.6 ° F 50% 29.86 pul 5.0 mi SSO 12.7 mph 25.3 mph N/A   Desconocido
3:30 AM 73.4 ° F - 51.8 ° F 47% 29.89 pul 3.7 mi Variable 12.7 mph 24.2 mph N/A   Desconocido
4:00 AM 72 ° F - 53 ° F 40% 29.88 pul - SSO 15.0 mph - -  
4:00 AM 73.4 ° F - 51.8 ° F 47% 29.86 pul 5.0 mi SO 16.1 mph - N/A   Desconocido
4:30 AM 73.4 ° F - 51.8 ° F 47% 29.86 pul 4.3 mi SO 17.3 mph 29.9 mph N/A   Desconocido
5:00 AM 72 ° F - 53 ° F 41% 29.88 pul - SSO 18.4 mph - -  
5:00 AM 71.6 ° F - 51.8 ° F 50% 29.86 pul 5.6 mi SSO 15.0 mph 28.8 mph N/A   Desconocido
5:30 AM 71.6 ° F - 51.8 ° F 50% 29.89 pul - SO 13.8 mph - N/A   Despejado
6:00 AM 71 ° F - 53 ° F 43% 29.89 pul - SSO 19.6 mph - -  
6:00 AM 71.6 ° F - 51.8 ° F 50% 29.89 pul - SSO 18.4 mph 29.9 mph N/A   Despejado
6:30 AM 71.6 ° F - 51.8 ° F 50% 29.89 pul - SSO 13.8 mph 26.5 mph N/A   Despejado
7:00 AM 71 ° F - 53 ° F 41% 29.90 pul - SSO 21.9 mph - -  
7:00 AM 71.6 ° F - 50.0 ° F 46% 29.89 pul - SSO 15.0 mph 26.5 mph N/A   Despejado
7:30 AM 71.6 ° F - 50.0 ° F 46% 29.89 pul - SSO 16.1 mph 27.6 mph N/A   Despejado
8:00 AM 70 ° F - 53 ° F 44% 29.91 pul 16 mi SSO 17.3 mph - -   Despejado
8:00 AM 71.6 ° F - 51.8 ° F 50% 29.89 pul - SSO 15.0 mph 27.6 mph N/A   Despejado
8:30 AM 71.6 ° F - 51.8 ° F 50% 29.92 pul 6.2 mi SSO 16.1 mph 32.2 mph N/A   Parcialmente nublado
9:00 AM 71 ° F - 52 ° F 40% 29.93 pul - SSO 16.1 mph - -  
9:00 AM 71.6 ° F - 51.8 ° F 50% 29.92 pul 6.2 mi SSO 15.0 mph 28.8 mph N/A   Parcialmente nublado
9:30 AM 71.6 ° F - 51.8 ° F 50% 29.92 pul - SSO 13.8 mph 28.8 mph N/A   Despejado
10:00 AM 72 ° F - 53 ° F 41% 29.96 pul - SSO 16.1 mph - -  
10:00 AM 73.4 ° F - 51.8 ° F 47% 29.95 pul 6.2 mi SSO 15.0 mph - N/A   Parcialmente nublado
10:30 AM 73.4 ° F - 51.8 ° F 47% 29.95 pul - SSO 15.0 mph 26.5 mph N/A   Despejado
11:00 AM 76 ° F - 52 ° F 33% 29.98 pul - SSO 16.1 mph - -  
11:00 AM 75.2 ° F - 51.8 ° F 44% 29.98 pul 6.2 mi SSO 15.0 mph 28.8 mph N/A   Parcialmente nublado
11:30 AM 75.2 ° F - 50.0 ° F 41% 29.98 pul - SSO 16.1 mph - N/A   Despejado
12:00 PM 76 ° F - 50 ° F 29% 29.99 pul - Sur 18.4 mph - -  
12:00 PM 75.2 ° F - 50.0 ° F 41% 29.98 pul - SSO 17.3 mph 29.9 mph N/A   Despejado
12:30 PM 77.0 ° F - 50.0 ° F 39% 29.98 pul - SSO 18.4 mph 31.1 mph N/A   Despejado
1:00 PM 79 ° F - 50 ° F 25% 29.99 pul - SSO 23.0 mph - -  
1:00 PM 78.8 ° F - 48.2 ° F 34% 29.98 pul - SSO 19.6 mph 34.5 mph N/A   Despejado
1:30 PM 78.8 ° F - 50.0 ° F 36% 29.98 pul - SSO 18.4 mph 32.2 mph N/A   Despejado
2:00 PM 80 ° F - 52 ° F 27% 30.00 pul - SSO 23.0 mph - -  
2:00 PM 78.8 ° F - 50.0 ° F 36% 29.98 pul - SSO 17.3 mph 34.5 mph N/A   Despejado
2:30 PM 80.6 ° F - 51.8 ° F 37% 29.98 pul - SSO 17.3 mph 29.9 mph N/A   Despejado
3:00 PM 81 ° F - 53 ° F 27% 30.00 pul - SSO 20.7 mph - -  
3:00 PM 80.6 ° F - 51.8 ° F 37% 29.98 pul - SSO 13.8 mph 28.8 mph N/A   Despejado
3:30 PM 80.6 ° F - 51.8 ° F 37% 29.98 pul - SSO 19.6 mph 33.4 mph N/A   Despejado
4:00 PM 82 ° F - 53 ° F 27% 29.99 pul - Sur 21.9 mph - -  
4:00 PM 80.6 ° F - 51.8 ° F 37% 29.98 pul - Sur 19.6 mph 32.2 mph N/A   Despejado
4:30 PM 80.6 ° F 80.3 ° F 53.6 ° F 39% 29.98 pul - SSO 18.4 mph 31.1 mph N/A   Despejado
5:00 PM 82 ° F - 54 ° F 28% 29.99 pul 22 mi Sur 18.4 mph - -   Despejado
5:00 PM 80.6 ° F - 51.8 ° F 37% 29.98 pul - Sur 17.3 mph 29.9 mph N/A   Despejado
5:30 PM 80.6 ° F - 51.8 ° F 37% 29.98 pul - SSO 18.4 mph - N/A   Despejado
6:00 PM 82 ° F - 54 ° F 27% 29.99 pul - Sur 20.7 mph - -  
6:00 PM 80.6 ° F - 51.8 ° F 37% 29.98 pul - SSO 19.6 mph - N/A   Despejado
6:30 PM 80.6 ° F 80.3 ° F 53.6 ° F 39% 29.98 pul - SSO 17.3 mph 28.8 mph N/A   Despejado
7:00 PM 80.6 ° F - 51.8 ° F 37% 29.98 pul 6.2 mi SSO 16.1 mph 27.6 mph N/A   Parcialmente nublado
7:30 PM 78.8 ° F - 51.8 ° F 39% 29.98 pul 6.2 mi SSO 15.0 mph 29.9 mph N/A   Parcialmente nublado
8:00 PM 78 ° F - 53 ° F 31% 30.01 pul - SSO 18.4 mph - -  
8:00 PM 78.8 ° F - 51.8 ° F 39% 29.98 pul 6.2 mi SSO 15.0 mph 31.1 mph N/A   Parcialmente nublado
8:30 PM 78.8 ° F - 51.8 ° F 39% 30.01 pul - SSO 15.0 mph 26.5 mph N/A   Despejado
9:00 PM 78 ° F - 53 ° F 31% 30.01 pul - SSO 16.1 mph - -  
9:00 PM 78.8 ° F - 51.8 ° F 39% 30.01 pul - SSO 13.8 mph 25.3 mph N/A   Despejado
9:30 PM 78.8 ° F - 51.8 ° F 39% 30.01 pul - SSO 9.2 mph - N/A   Despejado
10:00 PM 77 ° F - 53 ° F 32% 30.01 pul - SSO 13.8 mph - -  
10:00 PM 77.0 ° F - 51.8 ° F 41% 30.01 pul - SO 8.1 mph - N/A   Despejado
10:30 PM 77.0 ° F - 51.8 ° F 41% 30.01 pul - SSO 8.1 mph - N/A   Despejado
11:00 PM 77 ° F - 53 ° F 32% 30.01 pul 16 mi SSO 15.0 mph - -   Despejado
11:00 PM 78.8 ° F - 51.8 ° F 39% 30.01 pul - SSO 12.7 mph - N/A   Despejado
11:30 PM 77.0 ° F - 51.8 ° F 41% 30.01 pul 5.0 mi SSO 11.5 mph 24.2 mph N/A   Desconocido